|
Meteor 1-24 Rocket - Orbit
|
Quail Creek Observatory;
19:38:51
| Home | Info | Passes |
|
View from above orbital plane
|
View from above satellite
|
Ground track
|
The orbit data is extracted from the following two-line orbital elements,
1 08800U 76032B 13168.50832264 .00000333 00000-0 17484-3 0 7694
2 08800 081.2498 198.0910 0094215 001.6357 169.4037 14.09878946912346
| Epoch (UTC): | 17 June 2013 12:11:59 |
| Eccentricity: | 0.0094215 |
| inclination: | 81.2498° |
| perigee height: | 791 km |
| apogee height: | 928 km |
| right ascension of ascending node: | 198.0910° |
| argument of perigee: | 1.6357° |
| revolutions per day: | 14.09878946 |
| mean anomaly at epoch: | 169.4037° |
| orbit number at epoch: | 91234 |
The dashed part of the orbit path shows where the satellite is in the earth's shadow,
|
|